Tillbaka till svenska Fidonet
English   Information   Debug  
FILM   0/18
FNEWS_PUBLISH   4940
FN_SYSOP   42222
FN_SYSOP_OLD1   71952
FTP_FIDO   0/2
FTSC_PUBLIC   0/13974
FUNNY   0/4886
GENEALOGY.EUR   0/71
GET_INFO   105
GOLDED   0/408
HAM   3140/16677
HOLYSMOKE   0/6791
HOT_SITES   0/1
HTMLEDIT   0/71
HUB203   466
HUB_100   264
HUB_400   39
HUMOR   0/29
IC   0/2851
INTERNET   0/424
INTERUSER   0/3
IP_CONNECT   719
JAMNNTPD   0/233
JAMTLAND   0/47
KATTY_KORNER   0/41
LAN   0/16
LINUX-USER   0/19
LINUXHELP   0/1155
LINUX   0/22302
LINUX_BBS   0/957
mail   18.68
mail_fore_ok   249
MENSA   0/341
MODERATOR   0/102
MONTE   0/992
MOSCOW_OKLAHOMA   0/1245
MUFFIN   0/783
MUSIC   0/321
N203_STAT   938
N203_SYSCHAT   313
NET203   321
NET204   69
NET_DEV   0/10
NORD.ADMIN   0/101
NORD.CHAT   0/2572
NORD.FIDONET   189
NORD.HARDWARE   0/28
NORD.KULTUR   0/114
NORD.PROG   0/32
NORD.SOFTWARE   0/88
NORD.TEKNIK   0/58
NORD   0/453
OCCULT_CHAT   0/93
OS2BBS   0/787
OS2DOSBBS   0/580
OS2HW   0/42
OS2INET   0/37
OS2LAN   0/134
OS2PROG   0/36
OS2REXX   0/113
OS2USER-L   207
OS2   0/4831
OSDEBATE   0/18996
PASCAL   0/490
PERL   0/457
PHP   0/45
POINTS   0/405
POLITICS   0/29554
POL_INC   6073/14731
PSION   103
R20_ADMIN   1133
R20_AMATORRADIO   0/2
R20_BEST_OF_FIDONET   16
R20_CHAT   0/896
R20_DEPP   0/3
R20_DEV   400
R20_ECHO2   1847
R20_ECHOPRES   0/35
R20_ESTAT   0/719
R20_FIDONETPROG...
...RAM.MYPOINT
  0/2
R20_FIDONETPROGRAM   0/22
R20_FIDONET   0/248
R20_FILEFIND   0/24
R20_FILEFOUND   0/22
R20_HIFI   0/3
R20_INFO2   3739
R20_INTERNET   0/12940
R20_INTRESSE   0/60
R20_INTR_KOM   0/99
R20_KANDIDAT.CHAT   42
R20_KANDIDAT   28
R20_KOM_DEV   112
R20_KONTROLL   0/13360
R20_KORSET   0/18
R20_LOKALTRAFIK   0/24
R20_MODERATOR   0/1852
R20_NC   76
R20_NET200   245
R20_NETWORK.OTH...
...ERNETS
  0/13
R20_OPERATIVSYS...
...TEM.LINUX
  0/44
R20_PROGRAMVAROR   0/1
R20_REC2NEC   534
R20_SFOSM   0/341
R20_SF   0/108
R20_SPRAK.ENGLISH   0/1
R20_SQUISH   107
R20_TEST   2
R20_WORST_OF_FIDONET   20
RAR   0/9
RA_MULTI   106
RA_UTIL   0/162
REGCON.EUR   0/2068
REGCON   0/13
SCIENCE   0/1206
SF   0/239
SHAREWARE_SUPPORT   0/5146
SHAREWRE   0/14
SIMPSONS   0/169
STATS_OLD1   0/2539.065
STATS_OLD2   0/2530
STATS_OLD3   0/2395.095
STATS_OLD4   0/1692.25
SURVIVOR   0/495
SYSOPS_CORNER   0/3
SYSOP   0/84
TAGLINES   0/112
TEAMOS2   0/4530
TECH   0/2617
TEST.444   0/105
TRAPDOOR   0/19
TREK   0/755
TUB   0/290
UFO   0/40
UNIX   0/1316
USA_EURLINK   0/102
USR_MODEMS   0/1
VATICAN   0/2740
VIETNAM_VETS   0/14
VIRUS   0/378
VIRUS_INFO   0/201
VISUAL_BASIC   0/473
WHITEHOUSE   0/5187
WIN2000   0/101
WIN32   0/30
WIN95   0/4291
WIN95_OLD1   0/70272
WINDOWS   0/1517
WWB_SYSOP   0/419
WWB_TECH   0/810
ZCC-PUBLIC   0/1
ZEC   4

 
4DOS   0/134
ABORTION   0/7
ALASKA_CHAT   0/506
ALLFIX_FILE   0/1313
ALLFIX_FILE_OLD1   0/7997
ALT_DOS   0/152
AMATEUR_RADIO   0/1039
AMIGASALE   0/14
AMIGA   0/331
AMIGA_INT   0/1
AMIGA_PROG   0/20
AMIGA_SYSOP   0/26
ANIME   0/15
ARGUS   0/924
ASCII_ART   0/340
ASIAN_LINK   0/651
ASTRONOMY   0/417
AUDIO   0/92
AUTOMOBILE_RACING   0/105
BABYLON5   0/17862
BAG   135
BATPOWER   0/361
BBBS.ENGLISH   0/382
BBSLAW   0/109
BBS_ADS   0/5290
BBS_INTERNET   0/507
BIBLE   0/3563
BINKD   0/1119
BINKLEY   0/215
BLUEWAVE   0/2173
CABLE_MODEMS   0/25
CBM   0/46
CDRECORD   0/66
CDROM   0/20
CLASSIC_COMPUTER   0/378
COMICS   0/15
CONSPRCY   0/899
COOKING   41611
COOKING_OLD1   15220/24719
COOKING_OLD2   0/40862
COOKING_OLD3   0/37489
COOKING_OLD4   0/35496
COOKING_OLD5   9370
C_ECHO   0/189
C_PLUSPLUS   0/31
DIRTY_DOZEN   0/201
DOORGAMES   1549/2313
DOS_INTERNET   0/196
duplikat   6102
ECHOLIST   11789/18295
EC_SUPPORT   0/318
ELECTRONICS   0/359
ELEKTRONIK.GER   1534
ENET.LINGUISTIC   0/13
ENET.POLITICS   0/4
ENET.SOFT   0/11701
ENET.SYSOP   34298
ENET.TALKS   0/32
ENGLISH_TUTOR   0/2000
EVOLUTION   0/1335
FDECHO   0/217
FDN_ANNOUNCE   0/7068
FIDONEWS   25079
FIDONEWS_OLD1   0/49742
FIDONEWS_OLD2   0/35949
FIDONEWS_OLD3   0/30874
FIDONEWS_OLD4   0/37224
FIDO_SYSOP   12923
FIDO_UTIL   0/180
FILEFIND   0/209
FILEGATE   0/212
Möte HAM, 16677 texter
 lista första sista föregående nästa
Text 1085, 767 rader
Skriven 2006-06-30 02:20:43 av Amsat List (1:323/120.0)
Ärende: [keps] orb06180.amsa
============================
[keps] orb06180.amsa


SB KEPS @ AMSAT  $ORB06180.O
Orbital Elements  06180.OSCAR

HR AMSAT ORBITAL ELEMENTS FOR OSCAR SATELLITES
FROM WA5QGD FORT WORTH,TX June 29, 2006
Send SUBSCRIBE KEPS/UNSUBSCRIBE KEPS to majordomo@amsat.org only
BID: ORB06180.O
TO ALL RADIO AMATEURS BT

Satellite: AO-07
Catalog number: 07530
Epoch time:      06179.67866635
Element set:    0617
Inclination:      101.5658 deg
RA of node:       222.3218 deg
Eccentricity:    0.0011847
Arg of perigee:   223.2474 deg
Mean anomaly:     136.7666 deg
Mean motion:   12.53571626 rev/day
Decay rate:       -2.8e-07 rev/day^2
Epoch rev:           44682
Checksum:              316

Satellite: AO-10
Catalog number: 14129
Epoch time:      06177.51620175
Element set:    0292
Inclination:      027.4079 deg
RA of node:       328.3148 deg
Eccentricity:    0.6032572
Arg of perigee:   296.4057 deg
Mean anomaly:     014.7692 deg
Mean motion:   02.05869621 rev/day
Decay rate:      -5.40e-06 rev/day^2
Epoch rev:           17324
Checksum:              300

Satellite: UO-11
Catalog number: 14781
Epoch time:      06179.95241954
Element set:    0110
Inclination:      098.2049 deg
RA of node:       190.4191 deg
Eccentricity:    0.0008215
Arg of perigee:   224.2193 deg
Mean anomaly:     135.8345 deg
Mean motion:   14.79438165 rev/day
Decay rate:       3.22e-06 rev/day^2
Epoch rev:           19750
Checksum:              299

Satellite: RS-10/11
Catalog number: 18129
Epoch time:      06179.77382321
Element set:      26
Inclination:      082.9242 deg
RA of node:       319.5857 deg
Eccentricity:    0.0013368
Arg of perigee:   063.6073 deg
Mean anomaly:     296.6449 deg
Mean motion:   13.72776009 rev/day
Decay rate:        2.8e-07 rev/day^2
Epoch rev:           95274
Checksum:              329

Satellite: RS-15
Catalog number: 23439
Epoch time:      06179.90073384
Element set:    0026
Inclination:      064.8154 deg
RA of node:       218.2797 deg
Eccentricity:    0.0167610
Arg of perigee:   252.0015 deg
Mean anomaly:     106.2583 deg
Mean motion:   11.27552295 rev/day
Decay rate:       -3.9e-07 rev/day^2
Epoch rev:           47386
Checksum:              308

Satellite: FO-29
Catalog number: 24278
Epoch time:      06180.59397700
Element set:     259
Inclination:      098.5086 deg
RA of node:       183.4050 deg
Eccentricity:    0.0349825
Arg of perigee:   277.6486 deg
Mean anomaly:     078.5064 deg
Mean motion:   13.52921609 rev/day
Decay rate:       -3.4e-07 rev/day^2
Epoch rev:           48722
Checksum:              343

Satellite: SO-33
Catalog number: 25509
Epoch time:      06180.67695109
Element set:     687
Inclination:      031.4327 deg
RA of node:       058.6906 deg
Eccentricity:    0.0355060
Arg of perigee:   225.6879 deg
Mean anomaly:     131.4110 deg
Mean motion:   14.28109491 rev/day
Decay rate:       2.03e-06 rev/day^2
Epoch rev:           40082
Checksum:              297

Satellite: AO-40
Catalog number: 26609
Epoch time:      06180.24089187
Element set:     744
Inclination:      006.5121 deg
RA of node:       234.2952 deg
Eccentricity:    0.7949460
Arg of perigee:   175.1892 deg
Mean anomaly:     204.7829 deg
Mean motion:   01.25583387 rev/day
Decay rate:      .00000000 rev/day^2
Epoch rev:            2599
Checksum:              312

Satellite: VO-52
Catalog number: 28650
Epoch time:      06180.61941892
Element set:     364
Inclination:      097.8712 deg
RA of node:       253.4333 deg
Eccentricity:    0.0026765
Arg of perigee:   323.5254 deg
Mean anomaly:     036.4142 deg
Mean motion:   14.81133525 rev/day
Decay rate:      -1.97e-06 rev/day^2
Epoch rev:            6222
Checksum:              296

/EX
SB KEPS @ AMSAT  $ORB06180.D
Orbital Elements  06180.MICROS

HR AMSAT ORBITAL ELEMENTS FOR THE MICROSATS
FROM WA5QGD FORT WORTH,TX June 29, 2006
Send SUBSCRIBE KEPS/UNSUBSCRIBE KEPS to majordomo@amsat.org only
BID: ORB06180.D
TO ALL RADIO AMATEURS BT

Satellite: AO-16
Catalog number: 20439
Epoch time:      06180.58923492
Element set:     782
Inclination:      098.1848 deg
RA of node:       189.8341 deg
Eccentricity:    0.0011214
Arg of perigee:   152.7554 deg
Mean anomaly:     207.4223 deg
Mean motion:   14.31725723 rev/day
Decay rate:       -1.0e-08 rev/day^2
Epoch rev:           85809
Checksum:              308

Satellite: WO-18
Catalog number: 20441
Epoch time:      06179.59667000
Element set:     981
Inclination:      098.1852 deg
RA of node:       193.5164 deg
Eccentricity:    0.0011724
Arg of perigee:   156.1772 deg
Mean anomaly:     203.9950 deg
Mean motion:   14.31796003 rev/day
Decay rate:        1.3e-07 rev/day^2
Epoch rev:           85801
Checksum:              299

Satellite: LO-19
Catalog number: 20442
Epoch time:      06179.91852997
Element set:    0720
Inclination:      098.1872 deg
RA of node:       198.6805 deg
Eccentricity:    0.0012223
Arg of perigee:   154.8686 deg
Mean anomaly:     205.3099 deg
Mean motion:   14.31969309 rev/day
Decay rate:       1.13e-06 rev/day^2
Epoch rev:           85813
Checksum:              337

Satellite: UO-22
Catalog number: 21575
Epoch time:      06179.93539878
Element set:    0736
Inclination:      098.2961 deg
RA of node:       137.2712 deg
Eccentricity:    0.0008118
Arg of perigee:   041.2253 deg
Mean anomaly:     318.9556 deg
Mean motion:   14.39553199 rev/day
Decay rate:       -3.6e-07 rev/day^2
Epoch rev:           78470
Checksum:              341

Satellite: KO-23
Catalog number: 22077
Epoch time:      06179.72410577
Element set:    0831
Inclination:      066.0850 deg
RA of node:       077.8862 deg
Eccentricity:    0.0001569
Arg of perigee:   002.5140 deg
Mean anomaly:     357.5877 deg
Mean motion:   12.86436985 rev/day
Decay rate:       -3.7e-07 rev/day^2
Epoch rev:           65202
Checksum:              318

